Find Beidou DW 43

NORAD ID: 43707 Int'l Des: 2018-093 Owner: CNSA Country: CN Constellation: BeiDou operational
MEOCIRCULAR

实时位置

正在加载3D地球...

关于 Beidou DW 43

正在加载描述...

即将过境

Passes for default location (London). Set your location on the main map for personalized predictions.

高度历史

Loading altitude history...

两行轨道根数

1 43707U 18093B 26119.84730682 .00000044 00000-0 00000+0 0 9996
2 43707 54.1675 183.9284 0007122 324.7163 35.3161 1.86226721 50632
Epoch: Apr 29, 2026 • Age: 59 hours

当前状态

高度 21543.5 km
速度 3.78 km/s
星下点 -21.61°S, 50.78°E
发射日期 Nov 18, 2018
运行时间 7.4 years
类型 navigation

发射组

Unknown Vehicle • BeiDou Launch 35 • 2 satellites

技术详情

分类 Payload
质量 1014.00 kg
干质量 850.00 kg
总质量 1014.00 kg
长度 2.20 m
直径 1.70 m
跨度 10.00 m
形状 Box + 2 Pan
制造商 CAST
平台类型 BD-3M/SAR
阶段状态 In Orbit
所有者/国家 CNSA/CN

Most Searched